• In Netherlands
  • List of Countries
  • For 7 days
  • Water Temperature
  • Satellite Maps
  • Weather Map
  • Weather Widgets
  • user-avatar
    Login

    Hourly Weather Mauritius

    Today, 28 March, Tuesday

    Time Temperature Precipitation Wind Pressure Humidity
    00:00 +25°C° 0 mm 4 mps 724 mmHg 86%
    01:00 +25°C° 0 mm 4 mps 724 mmHg 86%
    02:00 +25°C° 0 mm 4 mps 724 mmHg 86%
    03:00 +25°C° 0 mm 4 mps 724 mmHg 87%
    04:00 +25°C° 0 mm 3 mps 724 mmHg 87%
    05:00 +25°C° 0 mm 3 mps 724 mmHg 86%
    06:00 +25°C° 0 mm 3 mps 724 mmHg 85%
    07:00 +25°C° 0 mm 3 mps 724 mmHg 84%
    08:00 +26°C° 0 mm 3 mps 725 mmHg 79%
    09:00 +27°C° 0 mm 3 mps 725 mmHg 74%
    10:00 +29°C° 0 mm 2 mps 725 mmHg 67%
    11:00 +29°C° 0 mm 2 mps 725 mmHg 66%
    12:00 +30°C° 0 mm 2 mps 724 mmHg 65%
    13:00 +30°C° 0 mm 2 mps 724 mmHg 64%
    14:00 +29°C° 0 mm 3 mps 724 mmHg 68%
    15:00 +28°C° 0 mm 3 mps 724 mmHg 72%
    16:00 +27°C° 0 mm 3 mps 723 mmHg 76%
    17:00 +27°C° 0 mm 3 mps 723 mmHg 77%
    18:00 +26°C° 0 mm 3 mps 723 mmHg 79%
    19:00 +26°C° 0 mm 3 mps 723 mmHg 80%
    20:00 +26°C° 0 mm 3 mps 724 mmHg 81%
    21:00 +26°C° 0 mm 3 mps 724 mmHg 82%
    22:00 +25°C° 0 mm 4 mps 724 mmHg 84%
    23:00 +25°C° 0 mm 3 mps 724 mmHg 84%

    Tomorrow, 29 March, Wednesday

    Time Temperature Precipitation Wind Pressure Humidity
    00:00 +25°C° 0 mm 3 mps 724 mmHg 84%
    01:00 +25°C° 0 mm 3 mps 724 mmHg 85%
    02:00 +25°C° 0.1 mm 3 mps 723 mmHg 85%
    03:00 +25°C° 0.1 mm 4 mps 723 mmHg 85%
    04:00 +25°C° 0.1 mm 4 mps 723 mmHg 85%
    05:00 +25°C° 0.1 mm 4 mps 723 mmHg 84%
    06:00 +25°C° 0.1 mm 4 mps 723 mmHg 84%
    07:00 +25°C° 0.1 mm 4 mps 723 mmHg 83%
    08:00 +26°C° 0.2 mm 4 mps 724 mmHg 80%
    09:00 +27°C° 0.2 mm 4 mps 724 mmHg 76%
    10:00 +28°C° 0.2 mm 4 mps 724 mmHg 72%
    11:00 +28°C° 0.6 mm 4 mps 724 mmHg 72%
    12:00 +28°C° 0.6 mm 4 mps 724 mmHg 72%
    13:00 +28°C° 0.6 mm 4 mps 723 mmHg 73%
    14:00 +28°C° 0.9 mm 4 mps 723 mmHg 74%
    15:00 +27°C° 0.9 mm 4 mps 723 mmHg 75%
    16:00 +27°C° 0.9 mm 4 mps 723 mmHg 77%
    17:00 +26°C° 0.5 mm 4 mps 723 mmHg 79%
    18:00 +26°C° 0.5 mm 4 mps 723 mmHg 82%
    19:00 +25°C° 0.5 mm 4 mps 723 mmHg 84%
    20:00 +25°C° 0.1 mm 4 mps 724 mmHg 84%
    21:00 +25°C° 0.1 mm 4 mps 724 mmHg 83%
    22:00 +25°C° 0.1 mm 4 mps 724 mmHg 82%
    23:00 +25°C° 0 mm 4 mps 724 mmHg 82%

    Day after tomorrow, 30 March, Thursday

    Time Temperature Precipitation Wind Pressure Humidity
    00:00 +25°C° 0 mm 4 mps 724 mmHg 83%
    01:00 +25°C° 0 mm 4 mps 724 mmHg 83%
    02:00 +25°C° 0.4 mm 3 mps 724 mmHg 84%
    03:00 +24°C° 0.4 mm 3 mps 723 mmHg 85%
    04:00 +24°C° 0.4 mm 2 mps 723 mmHg 86%
    05:00 +25°C° 0.6 mm 3 mps 723 mmHg 84%
    06:00 +25°C° 0.6 mm 3 mps 724 mmHg 83%
    07:00 +25°C° 0.6 mm 4 mps 724 mmHg 81%
    08:00 +26°C° 0.4 mm 4 mps 724 mmHg 79%
    09:00 +26°C° 0.4 mm 5 mps 725 mmHg 77%
    10:00 +27°C° 0.4 mm 5 mps 725 mmHg 75%
    11:00 +27°C° 0.9 mm 5 mps 725 mmHg 72%
    12:00 +28°C° 0.9 mm 5 mps 725 mmHg 70%
    13:00 +28°C° 0.9 mm 5 mps 724 mmHg 68%
    14:00 +28°C° 0.6 mm 5 mps 724 mmHg 70%
    15:00 +28°C° 0.6 mm 5 mps 724 mmHg 72%
    16:00 +27°C° 0.6 mm 5 mps 724 mmHg 74%
    17:00 +26°C° 0.5 mm 5 mps 724 mmHg 77%
    18:00 +26°C° 0.5 mm 5 mps 724 mmHg 80%
    19:00 +25°C° 0.5 mm 5 mps 724 mmHg 83%
    20:00 +25°C° 0.2 mm 5 mps 725 mmHg 83%
    21:00 +24°C° 0.2 mm 6 mps 725 mmHg 83%
    22:00 +24°C° 0.2 mm 6 mps 726 mmHg 83%
    23:00 +24°C° 0.3 mm 6 mps 726 mmHg 84%

    31 March, Friday

    Time Temperature Precipitation Wind Pressure Humidity
    00:00 +24°C° 0.3 mm 6 mps 725 mmHg 84%
    01:00 +24°C° 0.3 mm 6 mps 725 mmHg 84%
    02:00 +24°C° 0.2 mm 6 mps 725 mmHg 84%
    03:00 +24°C° 0.2 mm 6 mps 725 mmHg 84%
    04:00 +23°C° 0.2 mm 6 mps 724 mmHg 83%
    05:00 +23°C° 0.1 mm 6 mps 725 mmHg 83%
    06:00 +23°C° 0.1 mm 6 mps 725 mmHg 83%
    07:00 +23°C° 0.1 mm 6 mps 725 mmHg 83%
    08:00 +24°C° 0.1 mm 6 mps 726 mmHg 79%
    09:00 +26°C° 0.1 mm 6 mps 726 mmHg 74%
    10:00 +27°C° 0.1 mm 7 mps 726 mmHg 69%
    11:00 +27°C° 0.1 mm 7 mps 726 mmHg 71%
    12:00 +27°C° 0.1 mm 6 mps 726 mmHg 72%
    13:00 +26°C° 0.1 mm 6 mps 725 mmHg 74%
    14:00 +27°C° 0.1 mm 7 mps 725 mmHg 72%
    15:00 +27°C° 0.1 mm 7 mps 725 mmHg 70%
    16:00 +27°C° 0.1 mm 7 mps 725 mmHg 69%
    17:00 +26°C° 0 mm 7 mps 725 mmHg 73%
    18:00 +26°C° 0 mm 7 mps 725 mmHg 77%
    19:00 +24°C° 0 mm 7 mps 726 mmHg 81%
    20:00 +24°C° 0.1 mm 7 mps 726 mmHg 81%
    21:00 +24°C° 0.1 mm 7 mps 726 mmHg 81%
    22:00 +24°C° 0.1 mm 7 mps 727 mmHg 81%
    23:00 +24°C° 0 mm 7 mps 726 mmHg 81%

    1 April, Saturday

    Time Temperature Precipitation Wind Pressure Humidity
    00:00 +24°C° 0 mm 7 mps 726 mmHg 81%
    01:00 +24°C° 0 mm 7 mps 726 mmHg 82%
    02:00 +24°C° 0 mm 7 mps 725 mmHg 82%
    03:00 +24°C° 0 mm 7 mps 725 mmHg 82%
    04:00 +24°C° 0 mm 7 mps 725 mmHg 82%
    05:00 +24°C° 0 mm 7 mps 725 mmHg 81%
    06:00 +24°C° 0 mm 7 mps 725 mmHg 81%
    07:00 +24°C° 0 mm 7 mps 726 mmHg 80%
    08:00 +26°C° 0 mm 7 mps 726 mmHg 77%
    09:00 +26°C° 0 mm 7 mps 726 mmHg 73%
    10:00 +27°C° 0 mm 7 mps 727 mmHg 70%
    11:00 +28°C° 0 mm 7 mps 726 mmHg 69%
    12:00 +28°C° 0 mm 7 mps 726 mmHg 68%
    13:00 +28°C° 0 mm 7 mps 725 mmHg 67%
    14:00 +28°C° 0.1 mm 7 mps 725 mmHg 69%
    15:00 +27°C° 0.1 mm 7 mps 725 mmHg 71%
    16:00 +27°C° 0.1 mm 7 mps 725 mmHg 73%
    17:00 +26°C° 0.1 mm 7 mps 725 mmHg 75%
    18:00 +26°C° 0.1 mm 7 mps 725 mmHg 78%
    19:00 +24°C° 0.1 mm 7 mps 725 mmHg 81%
    20:00 +24°C° 0 mm 7 mps 726 mmHg 81%
    21:00 +24°C° 0 mm 7 mps 726 mmHg 81%
    22:00 +24°C° 0 mm 7 mps 726 mmHg 81%
    23:00 +24°C° 0 mm 7 mps 726 mmHg 80%

    2 April, Sunday

    Time Temperature Precipitation Wind Pressure Humidity
    00:00 +24°C° 0 mm 7 mps 726 mmHg 80%
    01:00 +24°C° 0 mm 6 mps 726 mmHg 80%
    02:00 +24°C° 0 mm 6 mps 725 mmHg 81%
    03:00 +24°C° 0 mm 6 mps 725 mmHg 82%
    04:00 +23°C° 0 mm 5 mps 725 mmHg 83%
    05:00 +25°C° 0.1 mm 5 mps 725 mmHg 82%
    06:00 +25°C° 0.1 mm 5 mps 725 mmHg 81%
    07:00 +25°C° 0.1 mm 5 mps 725 mmHg 80%
    08:00 +26°C° 0.1 mm 5 mps 726 mmHg 77%
    09:00 +27°C° 0.1 mm 6 mps 726 mmHg 74%
    10:00 +27°C° 0.1 mm 6 mps 726 mmHg 71%
    11:00 +28°C° 0.2 mm 6 mps 725 mmHg 71%
    12:00 +28°C° 0.2 mm 6 mps 725 mmHg 70%
    13:00 +28°C° 0.2 mm 6 mps 724 mmHg 70%
    14:00 +28°C° 0.1 mm 6 mps 724 mmHg 70%
    15:00 +28°C° 0.1 mm 6 mps 724 mmHg 71%
    16:00 +27°C° 0.1 mm 6 mps 724 mmHg 72%
    17:00 +27°C° 0 mm 6 mps 724 mmHg 76%
    18:00 +26°C° 0 mm 6 mps 724 mmHg 79%
    19:00 +24°C° 0 mm 6 mps 725 mmHg 83%
    20:00 +24°C° 0 mm 6 mps 725 mmHg 83%
    21:00 +24°C° 0 mm 6 mps 725 mmHg 83%
    22:00 +24°C° 0 mm 6 mps 725 mmHg 83%
    23:00 +24°C° 0 mm 6 mps 725 mmHg 83%
    Show more